Hourly Data Report for October 14, 2015

All times are specified in Local Standard Time (LST). Add 1 hour to adjust for Daylight Saving Time where and when it is observed.

SAINT JOHN A
NEW BRUNSWICK

45°18'58.000" N
65°53'24.000" W
108.80 m
8104901
71609
YSJ

Download Data

Hourly Data (October 2015)
Hourly Data Report for October 14, 2015
Temp Definition
°C
Dew Point Temp Definition
°C
Rel Hum Definition
%
Wind Dir Definition
10's deg

Wind Spd Definition
km/h
Visibility Definition
km
Stn Press Definition
kPa
Hmdx Definition


Wind Chill Definition


Weather Definition


TIME
00:00 Legend Double Dagger 12.9 12.9 100 21 17 0.6 98.59     Fog
01:00 Legend Double Dagger 13.2 13.2 100 20 19 0.6 98.52     Fog
02:00 Legend Double Dagger 13.7 13.7 100 20 22 1.2 98.46     Fog
03:00 Legend Double Dagger 13.8 13.8 100 20 26 0.8 98.38     Fog
04:00 Legend Double Dagger 14.0 14.0 100 21 26 1.0 98.36     Fog
05:00 Legend Double Dagger 13.6 13.6 100 21 26 0.8 98.37     Fog
06:00 Legend Double Dagger 13.4 13.4 100 21 18 0.8 98.42     Fog
07:00 Legend Double Dagger 13.2 13.2 100 23 15 0.6 98.48     Fog
08:00 Legend Double Dagger 13.4 13.4 100 22 18 3.2 98.54     Fog
09:00 Legend Double Dagger 13.6 13.6 100 23 16 4.8 98.60     Fog
10:00 Legend Double Dagger 13.8 13.0 95 22 21 24.1 98.68     LegendNANA
11:00 Legend Double Dagger 14.4 12.8 90 22 21 24.1 98.66     Mostly Cloudy
12:00 Legend Double Dagger 15.8 12.4 80 22 33 24.1 98.69     LegendNANA
13:00 Legend Double Dagger 16.7 12.1 74 22 25 24.1 98.67     LegendNANA
14:00 Legend Double Dagger 17.5 11.8 69 21 22 24.1 98.65     Mostly Cloudy
15:00 Legend Double Dagger 15.8 11.2 74 20 30 24.1 98.67     LegendNANA
16:00 Legend Double Dagger 14.6 11.4 81 21 22 24.1 98.74     LegendNANA
17:00 Legend Double Dagger 12.7 11.5 92 21 18 24.1 98.77     Mostly Cloudy
18:00 Legend Double Dagger 12.5 11.4 93 20 14 24.1 98.77     LegendNANA
19:00 Legend Double Dagger 12.5 11.1 91 20 19 24.1 98.84     LegendNANA
20:00 Legend Double Dagger 11.9 11.4 97 21 13 16.1 98.92     Rain
21:00 Legend Double Dagger 12.0 11.5 97 23 8 16.1 98.98     Rain
22:00 Legend Double Dagger 12.1 10.9 92 28 14 16.1 99.05     Rain
23:00 Legend Double Dagger 9.7 8.2 90 32 21 16.1 99.12     Rain

Notes on Data Quality.

Legend

  • E = Estimated
  • M = Missing
  • NA = Not Available
  • ‡ = Partner data that is not subject to review by the National Climate Archives
Date modified: